Regional Weather Roundup
Issued by NWS Wakefield, VA

Home | Current Version | Previous Version | Graphics & Text | Print | Product List | Glossary On
Versions: 1 2 3 4 5 6 7 8 9 10 11 12 13 14 15 16 17 18 19 20 21 22 23 24 25 26 27 28 29 30 31 32 33 34 35 36 37 38 39 40 41 42 43 44 45 46 47 48 49 50
000
ASUS41 KAKQ 292210
RWRAKQ

REGIONAL WEATHER ROUNDUP
NATIONAL WEATHER SERVICE WAKEFIELD VA
600 PM EDT TUE JUL 29 2014

Note: "fair" indicates few or no clouds below 12,000 feet with no
significant weather and/or obstructions to visibility. * = Denotes
station may not report precipitation (e.g., rain,snow,etc.),
thunder or fog.

VAZ042-051-052>054-056-292300-
NORTHERN VIRGINIA

CITY           SKY/WX    TMP DP  RH WIND       PRES   REMARKS
WASH NATIONAL  MOSUNNY   77  48  35 NW9       29.97R
DULLES         MOSUNNY   73  43  33 NW18      29.98R
FORT BELVOIR   SUNNY     75  46  35 NW12      29.97R
QUANTICO       SUNNY     76  49  38 N8        29.98R
FREDERICKSBRG* SUNNY     77  53  42 N7        29.95R
STAFFORD*      MOSUNNY   75  52  44 N8        30.01R
WARRENTON      MOSUNNY   75  58  55 N8        29.98R
CULPEPER*      MOSUNNY  N/A N/A N/A NW8       29.98R
MANASSAS*      NOT AVBL
LEESBURG*      SUNNY     72  52  49 N10G17    29.99R
WINCHESTER     MOSUNNY   70  45  40 NW10G18   30.00R
$$

VAZ048-049-060>072-079>083-292300-
CENTRAL AND SOUTH CENTRAL VIRGINIA...AND NORTH CENTRAL NORTH CAROLINA

CITY           SKY/WX    TMP DP  RH WIND       PRES   REMARKS
RICHMOND       PTSUNNY   78  53  41 N9        29.95R
CHESTERFIELD*  CLOUDY    79  52  38 N7        29.97R
HANOVER        PTSUNNY   77  53  43 VRB6      29.97R
TAPPAHANNOCK*  PTSUNNY   75  53  46 N3        29.96R
CHARLOTTSVILLE CLOUDY    75  55  49 NW3       29.96R
ORANGE*        PTSUNNY   73  54  49 NW6       29.98R
LOUISA*        CLOUDY    75  55  50 N3        29.95S
FARMVILLE*     LGT RAIN  73  55  53 N3        29.94S
SOUTH HILL*    SUNNY     81  54  39 CALM      30.00S
ROANOKE RAPIDS NOT AVBL
RALEIGH        MOSUNNY   81  55  40 SE5       29.94S
$$

VAZ088>098-292300-
SOUTHEAST VIRGINIA

CITY           SKY/WX    TMP DP  RH WIND       PRES   REMARKS
NORFOLK        SUNNY     76  55  48 NE7       29.95R
VIRGINIA BEACH MOSUNNY   77  56  48 N8        29.94R
NORFOLK NAVAL  MOSUNNY   77  58  51 E6        29.96R
WEST POINT*    MOSUNNY   80  51  36 CALM      29.96R
NEWPORT NEWS   SUNNY     82  57  42 N5        29.94R
LANGLEY AFB    SUNNY     79  54  42 VRB2      29.94R
FORT EUSTIS    SUNNY     78  55  43 VRB2      29.93R
WILLIAMSBURG*  MOSUNNY   82  55  39 CALM      29.95S
FRANKLIN*      SUNNY     79  55  44 CALM      29.95R
WAKEFIELD      MOSUNNY   80  54  40 VRB3      29.95R
$$

VAZ020-022-025-037-045-292300-
WESTERN AND SOUTHWEST VIRGINIA

CITY           SKY/WX    TMP DP  RH WIND       PRES   REMARKS
STAUNTON*      CLOUDY    73  50  44 N5        30.00R
HOT SPRINGS VA PTSUNNY   59  48  65 NW8       30.09R
LYNCHBURG      CLOUDY    76  55  48 NE3       29.98R
DANVILLE       MOSUNNY   80  56  43 SW7       29.95S
MARTINSVILLE   PTSUNNY   81  53  38 CALM      29.98S
ROANOKE        PTSUNNY   77  50  38 NW12      29.98R
BLACKSBURG     PTSUNNY   73  55  53 NW9       30.04R
DUBLIN*        MOSUNNY   74  52  45 NW9       30.03S
MARION*        MOSUNNY   71  52  50 W10G16    30.06S
HILLSVILLE*    PTSUNNY   71  48  45 W10       30.04R
RICHLANDS*     MOCLDY    67  54  61 NW9       30.07R
WISE*          MOSUNNY   64  46  52 NW9       30.10R
ABINGDON*      MOSUNNY   73  55  52 NW8       30.04R
$$

MDZ021>025-VAZ099-100-292300-
SOUTHERN MARYLAND AND THE DELMARVA PENINSULA

CITY           SKY/WX    TMP DP  RH WIND       PRES   REMARKS
PATUXENT RIVER MOSUNNY   76  50  40 NW15      29.95R
BAY BRIDGE APT   N/A     73  46  38 W7        29.95R
LEONARDTOWN    SUNNY     73  50  43 W7        29.97R
DOVER          PTSUNNY   74  58  57 SW7       29.92R
GEORGETOWN     SUNNY     75  50  41 SW7       29.95R
EASTON         MOSUNNY   75  54  46 NW7       29.99R
CAMBRIDGE      SUNNY     77  50  38 W9        29.95R
SALISBURY      NOT AVBL
OCEAN CITY     MOSUNNY   74  61  63 SE3       29.94R
WALLOPS ISLAND SUNNY     78  54  43 NW12      29.95R
ACCOMACK*        N/A     75  52  43 N7        29.94S
$$

NCZ012>017-030>032-292300-
EASTERN NORTH CAROLINA

CITY           SKY/WX    TMP DP  RH WIND       PRES   REMARKS
ELIZABETH CITY MOSUNNY   77  64  64 E8        29.94R
AHOSKIE*       SUNNY     79  56  46 CALM      29.95S
EDENTON*       SUNNY     80  60  51 N7        29.94R
CURRITUCK*     SUNNY     80  59  48 NE6       29.96R
KILL DEVIL HLS SUNNY     76  64  64 NE6       29.94R
MANTEO         NOT AVBL
CAPE HATTERAS  MOSUNNY   80  66  62 NE10G17   29.93R
GOLDSBORO      PTSUNNY   82  63  52 N8        29.92R
WASHINGTON     SUNNY     80  59  49 N7        29.94R
GREENVILLE     PTSUNNY   81  59  47 N7        29.97R
NEW BERN       PTSUNNY   83  65  54 NE6       29.93R
WILMINGTON     PTSUNNY   81  68  64 VRB5      29.91R
$$

VAZ048-292300-
ELSEWHERE

CITY           SKY/WX    TMP DP  RH WIND       PRES   REMARKS
HARRISBURG PA  PTSUNNY   71  52  50 NW9       29.95R
BALTIMORE      PTSUNNY   74  51  44 W12       29.95R
ANNAPOLIS      SUNNY     74  50  42 W6        29.95R
ANDREWS AFB    SUNNY     74  47  38 NW16      29.96R
WILMINGTON DE  CLOUDY    72  57  59 NW6       29.94R
PHILADELPHIA   CLOUDY    74  53  48 NW5       29.94R
WILDWOOD NJ*   PTSUNNY   73  55  53 NW3       29.95R
ATLANTIC CITY  CLOUDY    74  55  51 W5        29.93R
HENDERSON NC   SUNNY     78  54  42 N3        29.96R
GREENSBORO     PTSUNNY   79  54  41 SW5       29.95S
ROCKY MOUNT    SUNNY     82  56  40 NW5       29.95R
FAYETTEVILLE   MOSUNNY   83  59  44 NE8       29.92R
CHARLOTTE      MOSUNNY   81  54  39 CALM      29.96R
$$

VAZ100-292300-
MARINE

STATION/POSITION TIME  TEMP    WIND        PRES    WAVE   SWELL
                       AIR SEA DIR/SP/G            HT/PER HT/PER
                 (UTC) (F)     (DEG/KT/KT) (MB)    (FT/S) (FT/S)
44066 TX TWR #4  2200   72 75  280/  2/  4 1013.6R   3/ 8   3/ 8
CAPE MAY NJ      2200   73 80  250/  8/ 11 1013.3R
LEWES DE         2200   73 74  140/  4/  6 1013.6R
15NM E FENWICK I 2200   72 75              1014.1R   2/ 8
OCEAN-CITY-INLET 2200   73 73  180/  5/  6 1013.3S
WACHAPREAGUE VA  2200   76 81  330/  4/  6 1014.0R
THOMAS POINT MD  2200   73 78  290/ 12/ 15 1014.6R
GOOSES REEF MD   2200   74     340/ 12/ 14 1014.6S
COVE POINT MD    2200   73     330/  8/ 13 1014.1R
SOLOMONS ISLAND  2200      80                N/A
BISHOPS HEAD MD  2200   75 78  310/ 11/ 16 1013.7R
PINEY POINT MD   2200          340/ 11/ 13   N/A
POTOMAC MD       2200   75     340/ 12/ 16 1013.3R
CAMBRIDGE MD     2200   73 80  290/  9/ 11 1013.9R
LEWISETTA VA     2200   75 78  320/  8/ 11 1014.0R
RAPPAHANNOCK LGT 2200          340/  4/  4 1014.7R
STINGRAY PT      2200   76      90/  6/  8 1014.7R
YORK RVR RNG VA  2200   76     120/  4/  5 1013.4S
YORKTOWN VA      2200   77 80  310/  4/  5 1013.6S
JAMESTOWN VA     2200   76     300/  4/  8   N/A
DOMINION TERM VA 2200   76      80/  5/  7 1014.0S
KIPTOPEKE VA     2200      82  290/  4/  6   N/A
CHES BAY BRIDGE  2200   74 78   30/  3/  5 1013.6S
CAPE HENRY VA    2200   75     360/  5/  7 1013.0R
WILLOUBY STN VA  2200          100/  6/  7 1013.4S
S CRANEY ISL VA  2200           20/  6/  7 1014.0S
CAPE HENRY BUOY  2200      78                N/A     2/ 8
1ST LANDING BUOY 2200   76      30/  4/  6 1013.9R
CAPE CHARLES BUO 2200      77                N/A     2/ 8
OFFSHORE WE BUOY 2200      79                N/A     2/ 7
64NM E OF VA BCH 2200   74 79   20/  8/ 10 1014.0R   2/ 8   2/ 8
DUCK PIER NC     2200   74 72   40/  8/ 10 1013.5R
44056 DUCK FRF   2200                        N/A     2/ 4
OREGON INLET NC  2200   75 78   40/ 10/ 15 1013.8R
HATTERAS NC      2200   78 81   30/  8/ 13 1013.8S
DIAMOND SHLS NC  2200          VRB 14/ 17  1012.7R   3/ 8   2/ 8
CAPE LOOKOUT NC  2100   78      70/ 11/ 13 1012.7R
$$



USA.gov is the U.S. government's official web portal to all federal, state and local government web resources and services.